^^
Paulen-Weather Station Historical Data
 
Daily Summary for March 01, 2024 Units:  Metric    English   Both
Daily Weekly Monthly Yearly Custom
  Current: High: Low: Average:
Temperature: 6 °C 6 °C 6 °C 6 °C
Dew Point: 6 °C 6 °C 6 °C 6 °C
Humidity: 100% 100% 100% 100%
Wind Speed: 32km/h 33km/h 24km/h 28.7km/h
Wind Gust: 27km/h 32km/h - -
WindSSE - - SSE
Pressure: 1000.85 hPa 1002.07 hPa 1000.85 hPa -
Precipitation: 3.61 mm      
Historical Graphs
 
 
Tabular Data for March 01, 2024
Time Temperature Dew Point Pressure Wind Wind Speed Wind Gust Humidity Rainfall Rate (Hourly) solar
00:09 6 °C 6 °C 1002 hPa SSE 28 km/h 24 km/h 100% 0 mm 0 W/m2
00:14 6 °C 6 °C 1002 hPa S 29 km/h 23 km/h 100% 0 mm 0 W/m2
00:19 6 °C 6 °C 1002.03 hPa SSE 33 km/h 32 km/h 100% 0 mm 0 W/m2
00:24 6 °C 6 °C 1002.03 hPa SSE 33 km/h 26 km/h 100% 0 mm 0 W/m2
00:29 6 °C 6 °C 1002.03 hPa SSE 27 km/h 22 km/h 100% 0 mm 0 W/m2
00:34 6 °C 6 °C 1002.07 hPa SSE 29 km/h 23 km/h 100% 0 mm 0 W/m2
00:39 6 °C 6 °C 1002.07 hPa S 32 km/h 27 km/h 100% 0 mm 0 W/m2
00:44 6 °C 6 °C 1002.03 hPa S 31 km/h 26 km/h 100% 0 mm 0 W/m2
00:49 6 °C 6 °C 1002.07 hPa SSE 31 km/h 26 km/h 100% 0 mm 0 W/m2
00:54 6 °C 6 °C 1002.07 hPa SSE 33 km/h 27 km/h 100% 0 mm 0 W/m2
00:59 6 °C 6 °C 1002.07 hPa S 32 km/h 28 km/h 100% 0 mm 0 W/m2
01:04 6 °C 6 °C 1002.03 hPa SSE 30 km/h 24 km/h 100% 0 mm 0 W/m2
01:09 6 °C 6 °C 1002.03 hPa SSE 29 km/h 24 km/h 100% 0.2 mm 0 W/m2
01:14 6 °C 6 °C 1001.96 hPa SSE 30 km/h 23 km/h 100% 0.2 mm 0 W/m2
01:19 6 °C 6 °C 1001.93 hPa SSE 30 km/h 24 km/h 100% 0.2 mm 0 W/m2
01:24 6 °C 6 °C 1001.96 hPa SSE 26 km/h 21 km/h 100% 0.2 mm 0 W/m2
01:29 6 °C 6 °C 1001.9 hPa SSE 27 km/h 23 km/h 100% 0.2 mm 0 W/m2
01:34 6 °C 6 °C 1001.93 hPa SSE 27 km/h 21 km/h 100% 0.2 mm 0 W/m2
01:39 6 °C 6 °C 1001.86 hPa SSE 26 km/h 23 km/h 100% 0.2 mm 0 W/m2
01:44 6 °C 6 °C 1001.86 hPa SSE 27 km/h 23 km/h 100% 0.41 mm 0 W/m2
01:49 6 °C 6 °C 1001.8 hPa SSE 29 km/h 26 km/h 100% 0.61 mm 0 W/m2
01:54 6 °C 6 °C 1001.8 hPa SSE 27 km/h 22 km/h 100% 0.61 mm 0 W/m2
01:59 6 °C 6 °C 1001.76 hPa SSE 25 km/h 22 km/h 100% 0.61 mm 0 W/m2
02:04 6 °C 6 °C 1001.76 hPa SSE 30 km/h 24 km/h 100% 0.61 mm 0 W/m2
02:09 6 °C 6 °C 1001.73 hPa SSE 27 km/h 23 km/h 100% 0.79 mm 0 W/m2
02:14 6 °C 6 °C 1001.63 hPa SSE 26 km/h 21 km/h 100% 0.79 mm 0 W/m2
02:19 6 °C 6 °C 1001.59 hPa SSE 27 km/h 25 km/h 100% 0.79 mm 0 W/m2
02:24 6 °C 6 °C 1001.52 hPa SSE 28 km/h 23 km/h 100% 0.99 mm 0 W/m2
02:29 6 °C 6 °C 1001.49 hPa SSE 28 km/h 22 km/h 100% 1.19 mm 0 W/m2
02:34 6 °C 6 °C 1001.49 hPa SSE 28 km/h 23 km/h 100% 1.19 mm 0 W/m2
02:39 6 °C 6 °C 1001.46 hPa SSE 26 km/h 23 km/h 100% 1.19 mm 0 W/m2
02:44 6 °C 6 °C 1001.52 hPa SSE 29 km/h 24 km/h 100% 1.4 mm 0 W/m2
02:49 6 °C 6 °C 1001.46 hPa SSE 29 km/h 23 km/h 100% 1.4 mm 0 W/m2
02:54 6 °C 6 °C 1001.39 hPa SSE 28 km/h 26 km/h 100% 1.4 mm 0 W/m2
02:59 6 °C 6 °C 1001.36 hPa SSE 28 km/h 26 km/h 100% 1.6 mm 0 W/m2
03:04 6 °C 6 °C 1001.32 hPa SSE 30 km/h 24 km/h 100% 1.6 mm 0 W/m2
03:09 6 °C 6 °C 1001.32 hPa SSE 30 km/h 26 km/h 100% 1.6 mm 0 W/m2
03:14 6 °C 6 °C 1001.25 hPa SSE 31 km/h 25 km/h 100% 1.6 mm 0 W/m2
03:19 6 °C 6 °C 1001.19 hPa SSE 27 km/h 23 km/h 100% 1.6 mm 0 W/m2
03:24 6 °C 6 °C 1001.15 hPa SSE 27 km/h 24 km/h 100% 1.8 mm 0 W/m2
03:29 6 °C 6 °C 1001.15 hPa SSE 27 km/h 24 km/h 100% 1.8 mm 0 W/m2
03:34 6 °C 6 °C 1001.08 hPa SSE 29 km/h 23 km/h 100% 1.6 mm 0 W/m2
03:39 6 °C 6 °C 1001.02 hPa SSE 29 km/h 23 km/h 100% 1.8 mm 0 W/m2
03:44 6 °C 6 °C 1000.98 hPa SSE 29 km/h 25 km/h 100% 1.8 mm 0 W/m2
03:49 6 °C 6 °C 1000.95 hPa SSE 29 km/h 26 km/h 100% 1.6 mm 0 W/m2
03:54 6 °C 6 °C 1000.88 hPa SSE 28 km/h 24 km/h 100% 1.6 mm 0 W/m2
03:59 6 °C 6 °C 1000.88 hPa SSE 29 km/h 24 km/h 100% 1.4 mm 0 W/m2
04:04 6 °C 6 °C 1000.88 hPa SSE 24 km/h 25 km/h 100% 1.19 mm 0 W/m2
04:09 6 °C 6 °C 1000.85 hPa SSE 32 km/h 27 km/h 100% 1.19 mm 0 W/m2
Compliments of Weather Underground - 4 mb